Mena, AR

5:37 PM CDT on May 24, 2017 (GMT -0500)
Mena

Weather History for KMEZ - January, 2014

Change the Weather History Date:

Tuesday, January 7, 2014

  Actual Average (KFSM) Record (KFSM)
Temperature  
Mean Temperature 26 °F -  
Max Temperature 42 °F 48 °F 76 °F (1907)
Min Temperature 10 °F 29 °F -1 °F (1912)
Degree Days  
Heating Degree Days 39    
Moisture  
Dew Point 8 °F    
Average Humidity 46    
Maximum Humidity 73    
Minimum Humidity 27    
Precipitation  
Precipitation 0.00 in - - ()
Sea Level Pressure  
Sea Level Pressure 30.41 in    
Wind  
Wind Speed 3 mph (SW)    
Max Wind Speed 10 mph    
Max Gust Speed 18 mph    
Visibility 10 miles    
Events      
Averages and records for this station are not official NWS values.
T = Trace of Precipitation, MM = Missing Value Source: NWS Daily Summary

Daily Weather History Graph

Daily Weather History Graph

Search for Another Location

Airport or City:

Trip Planner

Search our weather history database for the weather conditions in past years. The results will help you decide how hot, cold, wet, or windy it might be!

Date:

Astronomy

Jan. 07, 2014 Rise Set
Actual Time 7:24 AM CST 5:22 PM CST
Civil Twilight 6:56 AM CST 5:49 PM CST
Nautical Twilight 6:25 AM CST 6:21 PM CST
Astronomical Twilight 5:54 AM CST 6:51 PM CST
Moon 11:32 AM CST (1/7) No Moon Set
Length of Visible Light 10h 53m
Length of Day
9h 58m
Waxing Crescent, 46% of the Moon is Illuminated
Jan 7
Waxing Crescent
Jan 7
First Quarter
Jan 15
Full
Jan 23
Last Quarter
Jan 30
New

Hourly Weather History & Observations

Time (CST) Temp. Windchill Dew Point Humidity Pressure Visibility Wind Dir Wind Speed Gust Speed Precip Events Conditions
12:15 AM 10.4 °F - -0.4 °F 62% 30.51 in 10.0 mi Calm Calm - N/A   Clear
12:35 AM 10.4 °F - -0.4 °F 62% 30.51 in 10.0 mi Calm Calm - N/A   Clear
12:55 AM 10.4 °F - 1.4 °F 67% 30.50 in 10.0 mi Calm Calm - N/A   Clear
1:15 AM 10.4 °F - 1.4 °F 67% 30.49 in 10.0 mi Calm Calm - N/A   Clear
1:35 AM 10.4 °F - 1.4 °F 67% 30.50 in 10.0 mi Calm Calm - N/A   Clear
1:55 AM 10.4 °F - 1.4 °F 67% 30.50 in 10.0 mi Calm Calm - N/A   Clear
2:15 AM 10.4 °F - -0.4 °F 62% 30.50 in 10.0 mi Calm Calm - N/A   Clear
2:35 AM 10.4 °F - 3.2 °F 73% 30.50 in 10.0 mi Calm Calm - N/A   Clear
2:55 AM 10.4 °F - 3.2 °F 73% 30.50 in 10.0 mi Calm Calm - N/A   Clear
3:15 AM 10.4 °F - 3.2 °F 73% 30.50 in 10.0 mi Calm Calm - N/A   Clear
3:35 AM 10.4 °F - 3.2 °F 73% 30.50 in 10.0 mi Calm Calm - N/A   Clear
3:55 AM 12.2 °F - 5.0 °F 73% 30.50 in 10.0 mi Calm Calm - N/A   Clear
4:15 AM 12.2 °F 4.3 °F 5.0 °F 73% 30.49 in 10.0 mi West 4.6 mph - N/A   Clear
4:35 AM 14.0 °F 6.5 °F 6.8 °F 73% 30.49 in 10.0 mi West 4.6 mph - N/A   Clear
4:55 AM 14.0 °F 8.2 °F 6.8 °F 73% 30.48 in 10.0 mi West 3.5 mph - N/A   Clear
5:15 AM 14.0 °F 8.2 °F 5.0 °F 67% 30.48 in 10.0 mi West 3.5 mph - N/A   Clear
5:35 AM 14.0 °F - 5.0 °F 67% 30.48 in 10.0 mi Calm Calm - N/A   Clear
5:55 AM 15.8 °F 8.6 °F 5.0 °F 62% 30.48 in 10.0 mi West 4.6 mph - N/A   Clear
6:15 AM 15.8 °F 7.2 °F 6.8 °F 68% 30.49 in 10.0 mi West 5.8 mph - N/A   Clear
6:35 AM 15.8 °F 7.2 °F 6.8 °F 68% 30.49 in 10.0 mi West 5.8 mph - N/A   Clear
6:55 AM 17.6 °F 9.3 °F 6.8 °F 63% 30.49 in 10.0 mi West 5.8 mph - N/A   Clear
7:15 AM 17.6 °F 10.7 °F 6.8 °F 63% 30.49 in 10.0 mi West 4.6 mph - N/A   Clear
7:35 AM 17.6 °F 9.3 °F 6.8 °F 63% 30.49 in 10.0 mi West 5.8 mph - N/A   Clear
7:55 AM 17.6 °F - 6.8 °F 63% 30.49 in 10.0 mi Calm Calm - N/A   Clear
8:15 AM 17.6 °F - 8.6 °F 68% 30.50 in 10.0 mi Calm Calm - N/A   Clear
8:35 AM 21.2 °F - 8.6 °F 58% 30.50 in - Calm Calm - N/A   Clear
8:55 AM 23.0 °F - 10.4 °F 59% 30.51 in - Calm Calm - N/A   Clear
9:15 AM 26.6 °F - 10.4 °F 51% 30.51 in - Calm Calm - N/A   Clear
9:35 AM 30.2 °F - 10.4 °F 44% 30.51 in - Calm Calm - N/A   Clear
9:55 AM 32.0 °F 28.7 °F 10.4 °F 41% 30.50 in - SW 3.5 mph - N/A   Clear
10:15 AM 32.0 °F 24.8 °F 10.4 °F 41% 30.50 in - WSW 8.1 mph - N/A   Clear
10:35 AM 32.0 °F 26.4 °F 8.6 °F 38% 30.49 in - SW 5.8 mph - N/A   Clear
10:55 AM 32.0 °F 24.8 °F 10.4 °F 41% 30.48 in - WSW 8.1 mph - N/A   Clear
11:15 AM 33.8 °F 26.4 °F 8.6 °F 35% 30.46 in - West 9.2 mph - N/A   Clear
11:35 AM 35.6 °F 29.2 °F 10.4 °F 35% 30.45 in - SW 8.1 mph - N/A   Clear
11:55 AM 37.4 °F 32.1 °F 10.4 °F 33% 30.43 in - WSW 6.9 mph - N/A   Clear
12:15 PM 37.4 °F 32.8 °F 10.4 °F 33% 30.41 in - SSW 5.8 mph - N/A   Clear
12:35 PM 41.0 °F 35.2 °F 10.4 °F 29% 30.39 in - SW 9.2 mph - N/A   Clear
12:55 PM 41.0 °F 38.0 °F 10.4 °F 29% 30.38 in - SSW 4.6 mph - N/A   Clear
1:15 PM 41.0 °F 35.2 °F 10.4 °F 29% 30.37 in - SW 9.2 mph - N/A   Clear
1:35 PM 42.8 °F 38.0 °F 10.4 °F 27% 30.36 in - SW 8.1 mph - N/A   Clear
1:55 PM 42.8 °F 38.0 °F 10.4 °F 27% 30.35 in - SW 8.1 mph - N/A   Clear
2:15 PM 42.8 °F 38.6 °F 10.4 °F 27% 30.35 in - SW 6.9 mph - N/A   Clear
2:35 PM 42.8 °F 39.3 °F 10.4 °F 27% 30.35 in - SW 5.8 mph - N/A   Clear
2:55 PM 42.8 °F 38.6 °F 12.2 °F 29% 30.34 in - SSW 6.9 mph - N/A   Clear
3:15 PM 42.8 °F 39.3 °F 12.2 °F 29% 30.34 in - South 5.8 mph - N/A   Clear
3:35 PM 42.8 °F 40.1 °F 12.2 °F 29% 30.34 in - SSW 4.6 mph - N/A   Clear
3:55 PM 42.8 °F 40.1 °F 12.2 °F 29% 30.34 in - South 4.6 mph - N/A   Clear
4:15 PM 42.8 °F 39.3 °F 12.2 °F 29% 30.34 in - SSW 5.8 mph - N/A   Clear
4:35 PM 42.8 °F 38.0 °F 12.2 °F 29% 30.33 in 10.0 mi SSW 8.1 mph - N/A   Clear
4:55 PM 41.0 °F 37.1 °F 12.2 °F 31% 30.33 in 10.0 mi SSW 5.8 mph - N/A   Clear
5:15 PM 41.0 °F 37.1 °F 12.2 °F 31% 30.33 in 10.0 mi SSW 5.8 mph - N/A   Clear
5:35 PM 37.4 °F 32.8 °F 12.2 °F 36% 30.32 in 10.0 mi SSW 5.8 mph - N/A   Clear
5:55 PM 37.4 °F - 12.2 °F 36% 30.33 in 10.0 mi Calm Calm - N/A   Clear
6:15 PM 37.4 °F 32.1 °F 12.2 °F 36% 30.33 in 10.0 mi SSW 6.9 mph - N/A   Clear
6:35 PM 37.4 °F 33.8 °F 12.2 °F 36% 30.33 in 10.0 mi SSW 4.6 mph - N/A   Clear
6:55 PM 37.4 °F 32.8 °F 10.4 °F 33% 30.33 in 10.0 mi SSW 5.8 mph - N/A   Clear
7:15 PM 37.4 °F 32.1 °F 10.4 °F 33% 30.32 in 10.0 mi SSW 6.9 mph - N/A   Clear
7:35 PM 37.4 °F 33.8 °F 10.4 °F 33% 30.32 in 10.0 mi SSW 4.6 mph - N/A   Clear
7:55 PM 37.4 °F 34.9 °F 10.4 °F 33% 30.32 in 10.0 mi SSW 3.5 mph - N/A   Clear
8:15 PM 37.4 °F 32.8 °F 8.6 °F 30% 30.32 in 10.0 mi South 5.8 mph - N/A   Clear
8:35 PM 37.4 °F 33.8 °F 8.6 °F 30% 30.33 in 10.0 mi South 4.6 mph - N/A   Clear
8:55 PM 37.4 °F 32.8 °F 8.6 °F 30% 30.33 in 10.0 mi SSW 5.8 mph - N/A   Clear
9:15 PM 37.4 °F 32.8 °F 8.6 °F 30% 30.33 in 10.0 mi SSW 5.8 mph - N/A   Clear
9:35 PM 37.4 °F 32.1 °F 8.6 °F 30% 30.33 in 10.0 mi SW 6.9 mph - N/A   Clear
9:55 PM 35.6 °F 31.7 °F 8.6 °F 33% 30.33 in 10.0 mi SSW 4.6 mph - N/A   Clear
10:15 PM 35.6 °F 31.7 °F 8.6 °F 33% 30.33 in 10.0 mi SSW 4.6 mph - N/A   Clear
10:35 PM 35.6 °F 32.8 °F 8.6 °F 33% 30.33 in 10.0 mi SW 3.5 mph - N/A   Clear
10:55 PM 35.6 °F - 8.6 °F 33% 30.33 in 10.0 mi Calm Calm - N/A   Clear
11:15 PM 35.6 °F 28.0 °F 8.6 °F 33% 30.33 in 10.0 mi SW 10.4 mph 18.4 mph N/A   Clear
11:35 PM 35.6 °F 29.9 °F 6.8 °F 30% 30.32 in 10.0 mi SW 6.9 mph 16.1 mph N/A   Clear
11:55 PM 35.6 °F 30.7 °F 6.8 °F 30% 30.31 in 10.0 mi SW 5.8 mph - N/A   Clear